Location: Heidgraben
(53.7081°N, 9.6576°E)
Time: 10:24:04
(UTC+00:00)

COSMOS 2455 - Pass Details

Date: 05 July 2020
Orbit: 898 x 911 km, 67.1° (Epoch: 05 August)

Event Time Altitude Azimuth Distance (km) Brightness Sun altitude
Rises 23:25:15 0° 319° (NW) 3,553 6.8 -13.6°
Reaches altitude 10° 23:27:47 10° 316° (NW) 2,608 5.9 -13.6°
Maximum altitude 23:33:44 61° 238° (WSW) 1,029 3.0 -13.6°
Enters shadow 23:38:24 17° 162° (SSE) 2,141 4.2 -13.6°
